UTTI current weather conditions

sailwx.info

Wind from 250 at 2 knots

Air temperature -3.0° C
Visibility: greater than 5.4 NM
Dewpoint -5.0° C
Present weather: Light snow.

Last reported at 2014-Dec-22 06:50 UTC.
Time now 2014-Dec-22 07:46 UTC

Location: N 60°54' E 026°56'.
View on Google Maps.

See reports from other nearby stations

  
Tides and Currents Weather Stations Pressure Air Temp Water Temp Dewpoint Dewpoint Depression Visibility Wind Speed Wind Dir Waves Ship Positions
date/time (UTC)wind fromknots sea level pressurealtimeterstation pressurevisibilityair tempwater tempwave heightnotes
2014-Dec-22 06:50 250 2 5.4-3.0 Light snow.
2014-Dec-22 06:20 270 1 5.4-3.0 Light snow.
2014-Dec-22 05:50 320 2 5.4-3.0 Light snow.
2014-Dec-22 04:50 300 4 5.4-3.0 Light snow.
2014-Dec-22 04:20 310 3 5.4-3.0 Light snow.
2014-Dec-22 03:50 300 4 5.4-3.0 Light ice pellets.
2014-Dec-22 03:20 300 5 4.3-3.0 Light snow showers.
2014-Dec-22 02:50 300 5 5.4-3.0 Light snow grains.
2014-Dec-22 02:20 290 5 5.4-3.0 Light snow.
2014-Dec-22 01:50 270 6 5.4-3.0 Light snow.
2014-Dec-22 01:20 270 7 5.4-3.0 Light snow.
2014-Dec-22 00:50 280 5 5.4-3.0 Light snow.
2014-Dec-22 00:20 290 6 5.4-2.0
2014-Dec-21 23:50 300 8 5.4-2.0 Light snow showers.
2014-Dec-21 23:20 300 6 5.4-2.0 Light snow showers.
2014-Dec-21 22:50 280 5 5.4-2.0 Light snow.
2014-Dec-21 22:20 290 9 5.4-2.0
2014-Dec-21 21:50 290 9 5.4-2.0
2014-Dec-21 21:20 290 8 5.4-2.0
2014-Dec-21 20:50 290 6 5.4-2.0
2014-Dec-21 20:20 290 8 5.4-2.0 Light snow.
2014-Dec-21 19:50 280 9 5.4-2.0 Light snow.
2014-Dec-21 19:20 280 8 5.4-2.0 Light snow showers.
2014-Dec-21 18:50 290 9 5.4-2.0 Light snow.
2014-Dec-21 18:20 280 10 5.4-2.0 Light snow.
2014-Dec-21 17:50 280 9 5.4-2.0 Light snow.
2014-Dec-21 17:20 280 9 5.4-2.0 Light snow.
2014-Dec-21 16:50 280 10 5.4-2.0 Light snow.
2014-Dec-21 16:20 280 9 5.4-3.0 Light snow.
2014-Dec-21 15:50 270 10 3.8-3.0 Light snow.
2014-Dec-21 15:20 280 10 3.2-2.0 Light snow.
2014-Dec-21 14:50 280 10 5.4-2.0 Light snow.
2014-Dec-21 14:20 270 9 5.4-3.0 Light snow.
2014-Dec-21 13:50 270 10 4.9-3.0 Light snow.
2014-Dec-21 13:20 280 12 3.2-3.0 Light snow.
2014-Dec-21 12:50 280 10 5.4-3.0
2014-Dec-21 12:20 280 11 5.4-3.0
2014-Dec-21 11:50 270 8 5.4-2.0
2014-Dec-21 11:20 290 10 5.4-2.0
2014-Dec-21 10:50 280 10 5.4-3.0
2014-Dec-21 10:20 280 11 5.4-3.0
2014-Dec-21 09:50 280 13 5.4-3.0
2014-Dec-21 09:20 270 10 5.4-3.0
2014-Dec-21 08:50 280 11 5.4-2.0
2014-Dec-21 08:20 280 10 5.4-2.0
2014-Dec-21 07:50 280 11 5.4-2.0
2014-Dec-21 07:20 280 11 5.4-2.0
2014-Dec-21 06:50 270 8 5.4-2.0
2014-Dec-21 06:20 290 8 5.4-1.0
2014-Dec-21 05:50 290 10 5.4-1.0
2014-Dec-21 05:20 270 10 5.4-1.0
2014-Dec-21 04:50 270 9 5.4-1.0
2014-Dec-21 04:20 270 10 5.4-1.0
2014-Dec-21 03:50 280 7 5.4-1.0
2014-Dec-21 03:20 280 9 5.4-1.0
2014-Dec-21 02:50 280 10 5.4-1.0
2014-Dec-21 02:20 280 8 5.4-1.0
2014-Dec-21 01:50 280 8 5.4-1.0 Light snow.
2014-Dec-21 01:20 270 9 5.4-1.0 Light snow.
2014-Dec-21 00:50 270 10 5.4-1.0 Light snow.
2014-Dec-21 00:20 280 9 5.4-1.0
2014-Dec-20 23:50 280 8 5.4-0.0
2014-Dec-20 23:20 260 9 5.4-0.0
2014-Dec-20 22:50 270 7 2.4-1.0 Light snow showers. Mist.
2014-Dec-20 22:20 240 8 5.4-1.0 Light snow showers.
2014-Dec-20 21:50 240 8 5.4-1.0
2014-Dec-20 21:20 240 8 5.4-1.0
2014-Dec-20 20:50 240 8 5.4-1.0
2014-Dec-20 20:20 240 8 5.4-0.0
2014-Dec-20 19:50 250 9 5.4-0.0
2014-Dec-20 19:20 240 9 5.4-0.0
2014-Dec-20 18:50 240 11 5.4-0.0
2014-Dec-20 18:20 240 10 5.4-0.0
2014-Dec-20 17:50 230 10 5.4-0.0
2014-Dec-20 17:20 230 10 5.4-1.0
2014-Dec-20 16:50 220 10 5.4-1.0
2014-Dec-20 16:20 220 10 5.4-1.0
2014-Dec-20 15:50 220 8 5.4-1.0
2014-Dec-20 15:20 220 8 5.4-1.0
2014-Dec-20 14:50 220 8 5.4-1.0
2014-Dec-20 14:20 210 8 5.4-1.0
2014-Dec-20 13:50 220 8 5.4-1.0
2014-Dec-20 13:20 210 8 5.4-1.0
2014-Dec-20 12:50 230 10 5.4-0.0
2014-Dec-20 12:20 230 10 5.4 1.0
2014-Dec-20 11:50 240 10 5.4 1.0
2014-Dec-20 11:20 240 11 5.4 1.0
2014-Dec-20 10:50 240 11 5.4 1.0
2014-Dec-20 10:20 240 9 5.4-0.0
2014-Dec-20 09:50 230 10 5.4 1.0
2014-Dec-20 09:20 240 10 5.4 1.0
2014-Dec-20 08:50 240 9 5.4-0.0
2014-Dec-20 08:20 230 10 -0.0
2014-Dec-20 07:50 230 10 5.4-0.0 Light snow showers.
2014-Dec-20 07:20 240 11 5.4 1.0 Light rain showers.